Location: ????????
(37.8634°N, 24.0181°E)
Time: 17:46:05
(UTC+00:00)

Daily predictions for brighter satellites

Satellite Brightness Start Highest point End
(mag) Time Altitude Azimuth Time Altitude Azimuth Time Altitude Azimuth
MOS 1 4.4 18:13:07 10° SSE 18:18:47 88° ENE 18:24:28 10° NNW
Cosmos 1300 2.7 18:16:17 10° N 18:20:06 76° E 18:23:54 10° S
SPOT 3 Rocket 3.9 18:15:27 10° SE 18:20:26 49° ENE 18:25:28 10° N
Cosmos 2298 Rocket 4.1 18:16:02 10° NNW 18:21:21 68° ENE 18:26:38 10° SSE
Cosmos 2315 Rocket 4.3 18:16:24 10° N 18:22:44 78° W 18:29:05 10° S
OAO 2 Rocket 3.8 18:18:29 10° SW 18:23:29 44° SSE 18:28:32 10° E
MOS 1 Rocket 4.0 18:20:37 10° N 18:25:19 62° WNW 18:30:18 10° SSW
NOSS 7 (D) 4.0 18:23:29 10° SSW 18:26:25 50° ESE 18:29:06 10° NE
Meteor 2-21 Rocket 4.5 18:20:38 10° S 18:26:47 70° E 18:32:57 10° NNE
SJ-6B 3.2 18:25:15 10° S 18:29:09 69° W 18:33:11 10° NNW
COSMOS 2428 4.3 18:33:44 10° SE 18:36:33 14° E 18:39:24 10° ENE
Cosmos 1461 3.4 18:32:46 10° NNW 18:37:29 63° ENE 18:41:51 12° SE
Cosmos 1455 3.6 18:36:15 10° NNE 18:39:20 22° ENE 18:41:50 13° ESE
Geosat 4.2 18:34:45 10° SE 18:39:41 61° ENE 18:44:39 10° NNW
IRIS 4.3 18:40:03 10° WSW 18:43:52 73° NNW 18:46:27 10° ENE
Cosmos 1812 Rocket 4.0 18:43:18 10° N 18:47:28 44° E 18:51:00 13° SSE
Delta 2 Rocket 2.9 18:45:04 10° WSW 18:48:27 56° S 18:51:17 13° E
Cosmos 1602 Rocket 3.5 18:45:11 10° S 18:49:34 79° E 18:54:01 10° N
Atlas Centaur 2 2.8 18:44:47 10° WSW 18:50:01 41° S 18:56:13 11° ESE
CZ-2C R/B 4.2 18:45:44 10° N 18:50:28 68° WNW 18:55:12 10° SSW
Nadezhda 1 Rocket 4.4 18:44:32 10° N 18:50:45 50° E 18:56:23 12° SSE
Cosmos 2263 Rocket 2.8 18:46:53 10° NNW 18:52:19 55° WSW 18:57:43 10° S
Cosmos 2219 Rocket 3.3 18:49:04 12° SSE 18:52:45 23° E 18:56:59 10° NE
Cosmos 2360 Rocket 2.1 18:48:43 10° SSW 18:54:19 74° ESE 18:59:58 10° NNE
Terra 4.1 18:54:55 10° ENE 18:55:18 10° ENE 18:55:41 10° ENE
Meteor 2-1 Rocket 4.3 18:52:42 10° N 18:58:34 75° E 19:04:14 11° SSE
DELTA 2 R/B (1) 4.2 18:55:16 10° SSW 19:00:10 32° SSE 19:05:06 10° E
IGS 5A 4.5 18:59:06 17° ESE 19:01:30 31° ENE 19:05:11 10° N
Cosmos 2333 Rocket 3.0 18:57:31 11° SSE 19:02:08 30° ESE 19:07:02 10° NE
OFEQ 5 4.3 19:03:25 20° E 19:05:09 68° S 19:07:47 10° W
OAO 1 Rocket 4.4 19:03:02 10° W 19:08:18 66° S 19:12:44 15° E
Cosmos 1818 3.8 19:05:20 10° SW 19:10:44 74° WNW 19:16:12 10° NNE
Resurs 01 Rocket 1.8 19:08:07 13° S 19:12:05 74° WSW 19:16:30 10° NNW
SL-16 R/B 4.1 19:08:12 10° WSW 19:13:17 33° WNW 19:18:22 10° N
Cosmos 773 Rocket 4.3 19:09:14 11° S 19:14:09 46° ESE 19:19:13 10° NNE
CZ-2C R/B 4.3 19:10:28 10° N 19:15:18 35° WNW 19:20:01 10° SW
ERS-1 Rocket 4.0 19:16:51 20° ESE 19:19:20 30° ENE 19:23:42 10° N
Cosmos-2242 3.5 19:16:09 10° N 19:20:19 44° E 19:22:15 27° SE
USA 215 3.2 19:16:37 10° NE 19:23:09 69° SE 19:29:38 10° SW
GEOS 3 Rocket 3.8 19:20:15 10° NNE 19:25:40 81° NW 19:31:02 10° SW
ATLAS 5 CENTAUR R/B 2.4 19:22:47 10° SW 19:26:44 50° NW 19:31:04 10° NNE
Cosmos 2278 Rocket 4.3 19:25:25 10° NNE 19:27:59 13° NE 19:30:32 10° ENE
ATLAS CENTAUR R/B 3.7 19:27:10 10° W 19:29:09 17° SW 19:30:59 13° SSW
USA 245 2.8 19:30:59 43° SSE 19:31:54 73° ENE 19:35:41 10° N
Cosmos 1844 Rocket 2.7 19:28:12 10° NNW 19:33:45 65° ENE 19:36:36 29° SE
Cosmos 1758 Rocket 3.9 19:30:45 11° SSW 19:35:03 68° W 19:39:33 10° N
SPOT 5 3.7 19:34:42 27° ESE 19:36:43 38° ENE 19:41:12 10° N
H-2A ROCKET BODY 3.9 19:32:02 10° WSW 19:37:10 40° S 19:49:41 18° ESE
Meteor 2-10 Rocket 4.0 19:33:26 10° NNW 19:38:28 58° W 19:42:29 17° S
Spot 2 Rocket 3.5 19:36:33 26° SSE 19:39:30 88° WSW 19:44:38 10° NNW
Cosmos 1400 Rocket 2.7 19:36:53 10° N 19:40:51 74° E 19:42:04 42° SSE
USA 81 4.3 19:39:13 30° SE 19:41:27 50° E 19:46:32 10° NNE
BREEZE-M DEB (TANK) 2.8 19:35:46 10° SW 19:43:01 89° SSE 19:45:23 11° NE
OAO 3 Rocket 3.4 19:39:55 10° W 19:44:41 52° SSW 19:46:11 38° SE
Landsat 7 3.8 19:42:56 29° S 19:45:21 82° W 19:50:08 10° NNW
Cosmos 2181 Rocket 4.3 19:40:33 10° N 19:46:42 51° E 19:49:24 31° SE
SPOT 1/Viking Rocket 3.5 19:51:15 32° S 19:53:40 86° WSW 19:58:52 10° NNW
Cosmos 1953 Rocket 3.7 19:56:03 29° SSW 19:58:11 71° W 20:02:29 10° N
VEP-3 3.9 19:57:42 10° SW 20:02:45 30° S 20:03:43 29° SSE
Alouette 2 Rocket 4.0 19:59:51 10° NNW 20:03:54 70° W 20:06:10 34° S
Cosmos 2344 4.1 20:06:06 32° SE 20:07:13 33° ESE 20:13:47 10° NE
OAO 2 Rocket 3.3 20:02:48 10° W 20:08:04 65° S 20:09:32 45° ESE
Cosmos 1842 Rocket 4.1 20:07:41 10° N 20:11:47 40° E 20:11:52 40° E
Cosmos 923 Rocket 4.4 20:12:02 42° ESE 20:12:17 42° ESE 20:17:14 10° NNE
Cosmos 967 Rocket 4.4 20:11:11 28° S 20:14:42 67° ESE 20:21:07 10° NE
Cosmos 1455 4.5 20:11:56 10° NW 20:14:47 20° W 20:16:46 14° SW
Cosmos 1980 4.0 20:15:08 42° ESE 20:15:27 42° ESE 20:20:44 10° NE
COSMOS 2428 2.9 20:15:32 16° SSW 20:20:07 70° WNW 20:25:48 10° NNE
ATLAS CENTAUR R/B 2.1 20:19:06 10° NNW 20:22:16 36° NE 20:22:16 36° NE
NOSS 0 Rocket 3.8 20:23:36 44° S 20:25:28 66° ESE 20:31:34 10° NNE
Cosmos 1844 4.1 20:22:13 10° NNW 20:27:48 54° WSW 20:29:32 39° SSW
Terra 1.7 20:31:40 67° S 20:32:18 83° WSW 20:37:06 10° NNW
CARTOSAT-1 4.3 20:32:57 41° SW 20:33:36 44° W 20:37:44 10° NNW
Cosmos 2237 Rocket 2.2 20:33:12 55° SE 20:33:41 57° ESE 20:39:16 10° NNE
Meteor 1-27 4.3 20:28:25 10° NNW 20:34:10 77° W 20:35:46 49° S
Cosmos 1869 3.8 20:30:26 10° N 20:33:50 52° NE 20:33:50 52° NE
Cosmos 2219 Rocket 3.2 20:31:00 10° SW 20:36:19 44° WNW 20:41:41 10° N
Atlas Centaur 2 3.0 20:32:55 10° WSW 20:38:47 42° S 20:38:47 42° S
Cosmos 2184 Rocket 3.9 20:42:26 47° SSW 20:44:24 84° W 20:50:43 10° N
BREEZE-M (TANK) 4.0 20:42:01 14° WSW 20:45:46 86° NW 21:03:18 10° ENE
Cosmos 2333 Rocket 3.6 20:41:06 10° SW 20:46:14 35° WNW 20:51:27 10° N
DELTA 2 R/B (1) 3.4 20:40:40 10° WSW 20:46:16 84° SSE 20:49:11 29° ENE
Meteor 2-2 Rocket 4.1 20:46:27 10° N 20:52:16 87° E 20:53:04 68° SSE
Thor Agena Rocket 3.8 20:48:09 10° NNE 20:52:43 52° E 20:52:43 52° E
Cosmos 1315 Rocket 3.9 20:50:31 10° NNW 20:54:13 39° W 20:54:13 39° W
ATLAS 2AS CENTAUR R/B 3.7 20:49:01 10° NNW 20:55:57 39° NE 20:59:01 27° E
ERS-1 Rocket 4.4 20:56:51 26° WSW 20:58:03 28° W 21:02:23 10° NW
MOS 1-B Rocket 4.3 20:51:13 10° NNE 20:58:30 57° E 20:59:26 53° SE
Cosmos 2221 3.0 20:58:34 10° NNW 21:02:29 57° WNW 21:02:29 57° WNW
Cosmos 1892 3.9 21:07:02 41° NNW 21:07:02 41° NNW 21:09:47 10° N
Cosmos 2112 Rocket 3.9 21:08:06 85° SSW 21:08:14 89° WNW 21:13:38 10° NNE
Cosmos 2278 Rocket 2.0 21:07:11 10° NNW 21:12:54 87° ENE 21:13:09 82° SE
Cosmos 158 Rocket 3.9 21:13:11 72° WNW 21:13:11 72° WNW 21:17:57 10° NNE
SL-16 R/B 2.8 21:18:56 43° ENE 21:18:56 43° ENE 21:23:24 10° NE
Spot 4 4.1 21:20:00 64° NNE 21:20:00 64° NNE 21:24:16 10° N
Cosmos 1943 Rocket 4.5 21:17:41 10° NNE 21:20:39 14° NE 21:23:11 11° ENE
Cosmos 2154 Rocket 4.2 21:23:03 52° SW 21:24:17 63° W 21:30:27 10° N
Cosmos 2058 4.2 21:25:00 35° WNW 21:25:00 35° WNW 21:28:25 10° N
Cosmos 2341 Rocket 3.8 21:26:54 72° SE 21:27:15 75° E 21:33:28 10° N
Cosmos 2056 Rocket 4.0 21:22:23 10° N 21:27:39 52° ENE 21:27:39 52° ENE
Nadezhda 3 Rocket 3.9 21:22:05 10° N 21:28:26 75° W 21:29:11 67° SW
USA 267 3.2 21:34:04 59° ESE 21:35:27 81° NE 21:42:02 10° NW
Cosmos 1680 Rocket 4.5 21:35:41 37° W 21:36:45 41° WNW 21:41:47 10° N
Meteor 2-3 Rocket 4.5 21:38:45 40° ENE 21:38:45 40° ENE 21:43:25 10° NNE
Cosmos 2151 4.1 21:47:18 42° NNW 21:47:18 42° NNW 21:50:22 10° N
SL-8 Rocket 3.8 21:46:22 78° ESE 21:46:28 78° E 21:52:39 10° N
COSMOS 2455 4.5 21:47:59 10° N 21:53:01 27° NE 21:55:18 21° E
Meteor 2-12 Rocket 4.4 21:53:25 73° E 21:53:25 73° E 21:59:29 10° NNE
Cosmos 1825 4.3 21:58:08 24° NW 21:58:08 24° NW 22:00:10 10° NNW
ALOS 2 3.5 21:58:03 46° N 21:58:03 46° N 22:01:11 10° N
Cosmos 1727 Rocket 4.5 21:56:58 10° N 22:02:59 47° E 22:03:21 47° E
Cosmos 44 4.2 22:05:15 39° NNW 22:05:15 39° NNW 22:08:31 10° NNE
Cosmos 1151 Rocket 4.2 22:00:21 10° N 22:03:13 40° N 22:03:13 40° N
Cosmos 2369 Rocket 4.0 22:01:00 10° N 22:05:15 22° NE 22:07:04 19° E
GP-B 4.2 22:08:15 10° N 22:11:23 43° NNW 22:11:23 43° NNW
Cosmos 371 Rocket 4.0 22:07:52 10° N 22:11:46 50° NNE 22:11:46 50° NNE
Cosmos 1339 Rocket 4.4 22:11:24 10° N 22:17:44 78° W 22:17:54 77° WSW
Cosmos 2237 Rocket 4.3 22:14:58 13° W 22:18:07 20° NW 22:22:18 10° N
NOSS 3-4 (A) 3.9 22:12:07 10° NW 22:19:16 66° WSW 22:19:47 64° SW
NOSS 3-4 (C) 3.9 22:12:13 10° NW 22:19:23 66° WSW 22:19:55 65° SW
Cosmos 2344 4.5 22:16:02 18° WSW 22:21:17 43° NW 22:28:47 10° NNE
CZ-2D R/B 4.4 22:35:31 10° ENE 22:37:32 12° E 22:37:33 12° E
CZ-4 R/B 4.5 22:40:59 10° NNE 22:44:35 52° NNE 22:44:35 52° NNE
ATLAS 2AS CENTAUR R/B 3.3 22:40:08 10° NW 22:46:25 43° W 22:46:25 43° W
Cosmos 44 Rocket 4.4 22:51:44 36° ENE 22:51:44 36° ENE 22:54:42 10° NE
Cosmos 1943 3.4 22:56:06 64° ENE 22:56:06 64° ENE 23:01:12 10° NNE
Cosmos 304 Rocket 4.4 22:54:16 10° NNW 22:58:04 55° N 22:58:04 55° N
Cosmos 494 Rocket 4.2 23:00:18 66° NNE 23:00:18 66° NNE 23:04:44 10° NNE
Cosmos 2228 Rocket 4.0 22:55:59 10° N 22:59:19 48° N 22:59:19 48° N
SL-16 R/B 3.9 23:00:46 21° W 23:02:18 24° WNW 23:06:52 10° N
Lacrosse 5 rocket 3.8 23:02:01 10° N 23:04:42 18° NNE 23:06:18 14° ENE
Cosmos 1943 Rocket 2.2 22:59:26 10° NNW 23:04:40 76° NW 23:04:40 76° NW
Cosmos 1821 Rocket 3.8 23:05:53 76° W 23:05:59 76° W 23:12:07 10° N
BREEZE-M DEB (TANK) 4.1 23:00:52 10° WSW 23:13:04 71° NNW 23:17:02 10° ENE
Sich 1 4.0 23:15:28 44° NNE 23:15:28 44° NNE 23:18:31 10° NNE
Cosmos 2123 Rocket 4.2 23:08:28 10° N 23:14:35 58° E 23:15:28 53° ESE
Cosmos 1535 Rocket 4.5 23:15:24 69° SE 23:15:56 74° E 23:22:15 10° N
Cosmos 1331 Rocket 4.1 23:18:24 10° NNW 23:23:39 72° ENE 23:23:39 72° ENE
Iridium 4 Rocket 4.2 23:28:48 49° ESE 23:29:36 53° E 23:35:11 10° NNE
SL-16 R/B 3.4 23:31:34 29° ESE 23:34:16 45° ENE 23:40:10 10° N
Cosmos 1605 Rocket 4.1 23:34:31 60° SE 23:35:28 70° E 23:41:46 10° NNE
Meteor 1-10 Rocket 4.2 23:30:31 10° NNW 23:35:50 69° WNW 23:35:50 69° WNW
Cosmos 1603 4.3 23:36:25 43° WNW 23:36:56 44° WNW 23:42:23 10° N
IRAS Rocket 4.4 23:37:09 56° ESE 23:37:59 65° ENE 23:43:25 10° N
Meteor 2-6 Rocket 4.5 23:33:07 10° NNW 23:37:54 51° WNW 23:37:54 51° WNW
Cosmos 389 Rocket 4.5 23:35:10 10° N 23:37:05 28° NNE 23:37:05 28° NNE
CZ-4C R/B 3.2 23:31:29 10° NNW 23:38:58 71° NE 23:45:19 19° SE
COSMOS 2455 3.3 23:33:23 10° NW 23:38:24 47° W 23:38:24 47° W
Cosmos 1269 Rocket 4.1 23:39:59 67° WNW 23:39:59 67° WNW 23:45:08 10° NNE
Cosmos 1110 Rocket 4.1 23:35:32 10° NNW 23:40:16 65° WNW 23:40:16 65° WNW
Cosmos 1666 Rocket 4.0 23:44:14 58° N 23:44:14 58° N 23:47:49 10° N
BREEZE-M TANK 4.3 23:47:12 19° ENE 23:47:12 19° ENE 23:48:10 10° ENE
Cosmos 1607 3.7 23:45:31 72° SSW 23:46:12 87° ESE 23:52:31 10° NNE
Resurs 1-4 Rocket 2.3 23:43:05 10° NNE 23:48:22 60° ESE 23:48:44 58° ESE
Cosmos 2369 Rocket 2.6 23:44:08 10° NNW 23:48:49 48° W 23:48:49 48° W
ISS -1.5 23:51:00 25° N 23:51:00 25° N 23:52:58 10° NNE
SeaSat 1 2.4 23:46:24 10° NNE 23:51:20 76° WNW 23:51:20 76° WNW
Helios 1B rocket 4.5 23:53:04 10° NNW 23:55:23 19° NW 23:55:23 19° NW
